Location: Spring Creek
(38.2870°N, 100.2160°W)
Time: 23:22:27
(UTC+00:00)

Cosmos 1725 Rocket - Pass Details

Date: 08 May 2021
Orbit: 961 x 991 km, 82.9° (Epoch: 21 June)

Event Time Altitude Azimuth Distance (km) Brightness Sun altitude
Rises 09:15:53 0° 354° (N) 3,695 7.6 -23.2°
Reaches altitude 10° 09:18:25 10° 355° (N) 2,738 6.9 -22.9°
Maximum altitude 09:24:42 80° 83° (E) 992 4.0 -22.1°
Enters shadow 09:29:16 19° 169° (S) 2,101 5.4 -21.4°
